Sarnia, Ontario

9:00 AM EDT on April 26, 2017 (GMT -0400)
Sarnia (Hadfield)

Weather History for CYZR - September, 2013

Change the Weather History Date:

Wednesday, September 11, 2013

  Actual Average Record
Temperature  
Mean Temperature 74 °F -  
Max Temperature 89 °F 64 °F 92 °F (1952)
Min Temperature 59 °F 49 °F 42 °F (1993)
Cooling Degree Days 9    
Growing Degree Days 24 (Base 50)    
Moisture  
Dew Point 68 °F    
Average Humidity 75    
Maximum Humidity 96    
Minimum Humidity 49    
Precipitation  
Precipitation 0.16 in 0.11 in - ()
Sea Level Pressure  
Sea Level Pressure 29.96 in    
Wind  
Wind Speed 8 mph ()    
Max Wind Speed 22 mph    
Max Gust Speed 30 mph    
Visibility 8.7 miles    
Events Rain , Thunderstorm    
Averages and records for this station are not official NWS values.
T = Trace of Precipitation, MM = Missing Value Source: Averaged Metar Reports

Daily Weather History Graph

Daily Weather History Graph

Search for Another Location

Airport or City:

Trip Planner

Search our weather history database for the weather conditions in past years. The results will help you decide how hot, cold, wet, or windy it might be!

Date:

Astronomy

Sep. 11, 2013 Rise Set
Actual Time 7:04 AM EDT 7:45 PM EDT
Civil Twilight 6:36 AM EDT 8:14 PM EDT
Nautical Twilight 6:02 AM EDT 8:48 PM EDT
Astronomical Twilight 5:26 AM EDT 9:23 PM EDT
Moon 1:41 PM EDT (9/11) 11:30 PM EDT (9/11)
Length of Visible Light 13h 38m
Length of Day
12h 41m
Waxing Crescent, 38% of the Moon is Illuminated
Sep 11
Waxing Crescent
Sep 12
First Quarter
Sep 19
Full
Sep 26
Last Quarter
Oct 4
New

Hourly Weather History & Observations

Time (EDT) Temp. Heat Index Dew Point Humidity Pressure Visibility Wind Dir Wind Speed Gust Speed Precip Events Conditions
12:00 AM 75.2 °F - 66.2 °F 73% 29.99 in 9.0 mi SSW 6.9 mph - N/A   Clear
1:00 AM 73.4 °F - 68.0 °F 83% 29.99 in 9.0 mi SSW 6.9 mph - N/A   Clear
2:00 AM 73.4 °F - 68.0 °F 83% 29.98 in 9.0 mi SSW 6.9 mph - N/A   Clear
3:00 AM 75.2 °F - 66.2 °F 73% 29.98 in 9.0 mi SSW 6.9 mph - N/A   Clear
4:00 AM 73.4 °F - 66.2 °F 78% 29.98 in 9.0 mi SSW 6.9 mph - N/A   Clear
5:00 AM 73.4 °F - 66.2 °F 78% 29.98 in 9.0 mi South 6.9 mph - N/A   Partly Cloudy
6:00 AM 71.6 °F - 66.2 °F 83% 29.98 in 9.0 mi SSW 6.9 mph - N/A   Mostly Cloudy
7:00 AM 71.6 °F - 64.4 °F 78% 30.00 in 9.0 mi SSW 3.5 mph - N/A   Clear
8:00 AM 71.6 °F - 66.2 °F 83% 30.00 in 9.0 mi South 6.9 mph - N/A   Clear
9:00 AM 75.2 °F - 68.0 °F 78% 30.01 in 9.0 mi SSW 9.2 mph - N/A   Clear
10:00 AM 82.4 °F 85.4 °F 68.0 °F 62% 30.00 in 9.0 mi WSW 8.1 mph - N/A   Clear
11:00 AM 84.2 °F 87.3 °F 68.0 °F 58% 30.00 in 9.0 mi WSW 8.1 mph 17.3 mph N/A   Partly Cloudy
12:00 PM 86.0 °F 89.4 °F 68.0 °F 55% 29.99 in 9.0 mi SW 10.4 mph - N/A   Partly Cloudy
1:00 PM 87.8 °F 92.6 °F 69.8 °F 55% 29.98 in 9.0 mi SW 11.5 mph - N/A   Partly Cloudy
2:00 PM 89.6 °F 94.7 °F 69.8 °F 52% 29.97 in 9.0 mi WSW 8.1 mph - N/A   Scattered Clouds
3:00 PM 89.6 °F 93.4 °F 68.0 °F 49% 29.95 in 9.0 mi WNW 11.5 mph - N/A   Clear
4:00 PM 87.8 °F 91.4 °F 68.0 °F 52% 29.94 in 9.0 mi West 10.4 mph 17.3 mph N/A Thunderstorm Mostly Cloudy
4:42 PM 89.6 °F 94.7 °F 69.8 °F 52% 29.90 in 9.0 mi West 9.2 mph - N/A   Clear
5:00 PM 89.6 °F 94.7 °F 69.8 °F 52% 29.89 in 9.0 mi WSW 10.4 mph - N/A   Clear
6:00 PM 89.6 °F 93.4 °F 68.0 °F 49% 29.90 in 9.0 mi West 11.5 mph - N/A   Partly Cloudy
6:51 PM 78.8 °F - 69.8 °F 74% 29.89 in 9.0 mi North 4.6 mph - N/A Thunderstorm Mostly Cloudy
7:00 PM 78.8 °F - 69.8 °F 74% 29.89 in 9.0 mi North 5.8 mph - N/A Thunderstorm Overcast
7:10 PM 78.8 °F - 69.8 °F 74% 29.90 in 9.0 mi North 6.9 mph - N/A Rain , Thunderstorm Light Rain
7:15 PM 78.8 °F - 69.8 °F 74% 29.93 in 9.0 mi NNW 18.4 mph - N/A Rain , Thunderstorm Light Rain
7:16 PM 77.0 °F - 71.6 °F 83% 29.94 in 9.0 mi NNW 21.9 mph 29.9 mph N/A Rain , Thunderstorm Light Thunderstorms and Rain
7:20 PM 75.2 °F - 71.6 °F 89% 29.93 in 5.0 mi North 17.3 mph 29.9 mph N/A Rain , Thunderstorm Heavy Thunderstorms and Rain
7:24 PM 73.4 °F - 69.8 °F 88% 29.91 in 4.0 mi NNE 17.3 mph 29.9 mph N/A Rain , Thunderstorm Light Thunderstorms and Rain
7:30 PM 73.4 °F - 66.2 °F 78% 29.93 in 7.0 mi North 12.7 mph 27.6 mph N/A Rain , Thunderstorm Light Thunderstorms and Rain
7:58 PM 75.2 °F - 69.8 °F 83% 29.96 in 9.0 mi SSW 8.1 mph - N/A Thunderstorm Thunderstorm
8:00 PM 59 °F - 58 °F 96%  in - North 1.2 mph - -  
8:00 PM 73.4 °F - 69.8 °F 88% 29.96 in 9.0 mi SSW 5.8 mph - N/A Thunderstorm Thunderstorm
8:11 PM 75.2 °F - 68.0 °F 78% 29.96 in 9.0 mi South 5.8 mph - N/A Rain , Thunderstorm Light Thunderstorms and Rain
8:23 PM 73.4 °F - 66.2 °F 78% 29.96 in 9.0 mi Variable 12.7 mph 21.9 mph N/A Rain , Thunderstorm Light Rain
8:40 PM 73.4 °F - 66.2 °F 78% 29.96 in 9.0 mi WSW 15.0 mph 21.9 mph N/A Rain , Thunderstorm Light Thunderstorms and Rain
8:42 PM 73.4 °F - 66.2 °F 78% 29.96 in 9.0 mi WSW 13.8 mph 21.9 mph N/A Thunderstorm Thunderstorm
8:45 PM 73.4 °F - 66.2 °F 78% 29.96 in 9.0 mi WSW 10.4 mph 21.9 mph N/A Rain , Thunderstorm Light Thunderstorms and Rain
8:55 PM 71.6 °F - 66.2 °F 83% 29.97 in 9.0 mi WSW 8.1 mph - N/A Rain , Thunderstorm Light Rain
9:00 PM 71.6 °F - 66.2 °F 83% 29.97 in 9.0 mi Variable 2.3 mph - N/A Rain , Thunderstorm Light Rain
9:20 PM 71.6 °F - 68.0 °F 88% 29.96 in 9.0 mi East 5.8 mph - N/A Rain Light Rain
9:26 PM 71.6 °F - 68.0 °F 88% 29.96 in 9.0 mi East 5.8 mph - N/A   Overcast
10:00 PM 69.8 °F - 68.0 °F 94% 29.95 in 9.0 mi ESE 3.5 mph - N/A   Mostly Cloudy
11:00 PM 69.8 °F - 68.0 °F 94% 29.94 in 9.0 mi Calm Calm - N/A   Overcast